Wetterdaten: Mittwoch, 08.08.2012
Datum Zeit Temperatur Luftfeuchte Regen Wind Richtung Richtung Taupunkt Windchill Windben
08.08.2012 00:00 13,8 C 80 % 0,0 l/m 0,3 km/h (0 Bft) NO 45 10,4 C 13,5 C 0,0 km/h (0 Bft)
08.08.2012 00:05 13,8 C 80 % 0,0 l/m 0,2 km/h (0 Bft) NO 45 10,4 C 13,3 C 0,0 km/h (0 Bft)
08.08.2012 00:10 13,6 C 80 % 0,0 l/m 0,0 km/h (0 Bft) NO 45 10,2 C 13,1 C 0,0 km/h (0 Bft)
08.08.2012 00:15 13,1 C 81 % 0,0 l/m 0,3 km/h (0 Bft) S 180 9,9 C 12,6 C 2,1 km/h (1 Bft)
08.08.2012 00:20 12,9 C 83 % 0,0 l/m 0,5 km/h (0 Bft) N-NO 22 10,1 C 12,3 C 2,1 km/h (1 Bft)
08.08.2012 00:25 12,7 C 84 % 0,0 l/m 0,5 km/h (0 Bft) N-NW 337 10,1 C 12,1 C 0,0 km/h (0 Bft)
08.08.2012 00:30 12,7 C 84 % 0,0 l/m 0,5 km/h (0 Bft) NO 45 10,1 C 12,0 C 1,6 km/h (1 Bft)
08.08.2012 00:35 12,8 C 85 % 0,0 l/m 0,5 km/h (0 Bft) NO 45 10,3 C 11,9 C 3,2 km/h (1 Bft)
08.08.2012 00:40 12,8 C 85 % 0,0 l/m 0,3 km/h (0 Bft) N-NW 337 10,3 C 11,9 C 1,6 km/h (1 Bft)
08.08.2012 00:45 12,7 C 85 % 0,0 l/m 0,2 km/h (0 Bft) N 360 10,2 C 12,0 C 0,0 km/h (0 Bft)
08.08.2012 00:50 12,8 C 85 % 0,0 l/m 0,2 km/h (0 Bft) N-NO 22 10,3 C 12,0 C 0,0 km/h (0 Bft)
08.08.2012 00:55 12,6 C 85 % 0,0 l/m 0,6 km/h (0 Bft) N-NO 22 10,1 C 12,0 C 3,7 km/h (1 Bft)
08.08.2012 01:00 12,7 C 85 % 0,0 l/m 1,0 km/h (0 Bft) N-NO 22 10,2 C 12,0 C 1,9 km/h (1 Bft)
08.08.2012 01:05 12,7 C 85 % 0,0 l/m 0,8 km/h (0 Bft) N 360 10,2 C 11,9 C 3,2 km/h (1 Bft)
08.08.2012 01:10 12,6 C 85 % 0,0 l/m 0,8 km/h (0 Bft) NO 45 10,1 C 11,9 C 0,0 km/h (0 Bft)
08.08.2012 01:15 12,4 C 86 % 0,0 l/m 0,5 km/h (0 Bft) N-NO 22 10,1 C 11,9 C 3,4 km/h (1 Bft)
08.08.2012 01:20 12,3 C 86 % 0,0 l/m 0,2 km/h (0 Bft) N 360 10,0 C 11,9 C 0,0 km/h (0 Bft)
08.08.2012 01:25 11,9 C 86 % 0,0 l/m 0,2 km/h (0 Bft) W-NW 292 9,6 C 11,6 C 0,0 km/h (0 Bft)
08.08.2012 01:30 11,8 C 86 % 0,0 l/m 0,0 km/h (0 Bft) N-NO 22 9,5 C 11,3 C 0,0 km/h (0 Bft)
08.08.2012 01:35 11,8 C 86 % 0,0 l/m 0,2 km/h (0 Bft) N-NO 22 9,5 C 11,0 C 0,0 km/h (0 Bft)
08.08.2012 01:40 11,4 C 86 % 0,0 l/m 0,2 km/h (0 Bft) W-NW 292 9,1 C 10,8 C 0,0 km/h (0 Bft)
08.08.2012 01:45 11,3 C 87 % 0,0 l/m 0,0 km/h (0 Bft) N-NW 337 9,2 C 10,5 C 0,0 km/h (0 Bft)
08.08.2012 01:50 11,2 C 87 % 0,0 l/m 0,2 km/h (0 Bft) N 360 9,1 C 10,5 C 2,3 km/h (1 Bft)
08.08.2012 01:55 11,4 C 88 % 0,0 l/m 0,6 km/h (0 Bft) N-NO 22 9,5 C 10,6 C 0,0 km/h (0 Bft)
08.08.2012 02:00 11,4 C 88 % 0,0 l/m 0,6 km/h (0 Bft) NO 45 9,5 C 10,7 C 0,0 km/h (0 Bft)
08.08.2012 02:05 11,3 C 88 % 0,0 l/m 0,0 km/h (0 Bft) N 360 9,4 C 10,5 C 0,0 km/h (0 Bft)
08.08.2012 02:10 11,5 C 88 % 0,0 l/m 0,0 km/h (0 Bft) N-NW 337 9,6 C 10,5 C 0,0 km/h (0 Bft)
08.08.2012 02:15 11,5 C 88 % 0,0 l/m 0,0 km/h (0 Bft) NO 45 9,6 C 10,5 C 0,0 km/h (0 Bft)
08.08.2012 02:20 11,3 C 88 % 0,0 l/m 0,0 km/h (0 Bft) N-NO 22 9,4 C 10,5 C 0,0 km/h (0 Bft)
08.08.2012 02:25 11,3 C 88 % 0,0 l/m 0,0 km/h (0 Bft) NO 45 9,4 C 10,5 C 0,0 km/h (0 Bft)
08.08.2012 02:30 11,2 C 88 % 0,0 l/m 0,0 km/h (0 Bft) N-NO 22 9,3 C 10,4 C 0,0 km/h (0 Bft)
08.08.2012 02:35 11,3 C 89 % 0,0 l/m 0,0 km/h (0 Bft) N-NO 22 9,6 C 10,4 C 0,0 km/h (0 Bft)
08.08.2012 02:40 11,4 C 89 % 0,0 l/m 0,0 km/h (0 Bft) W-NW 292 9,7 C 10,4 C 0,0 km/h (0 Bft)
08.08.2012 02:45 11,2 C 89 % 0,0 l/m 0,0 km/h (0 Bft) NO 45 9,5 C 10,4 C 0,0 km/h (0 Bft)
08.08.2012 02:50 11,2 C 89 % 0,0 l/m 0,0 km/h (0 Bft) NO 45 9,5 C 10,3 C 0,0 km/h (0 Bft)
08.08.2012 02:55 11,0 C 89 % 0,0 l/m 0,5 km/h (0 Bft) W 270 9,3 C 10,4 C 2,9 km/h (1 Bft)
08.08.2012 03:00 11,2 C 89 % 0,0 l/m 0,8 km/h (0 Bft) N-NO 22 9,5 C 10,4 C 0,0 km/h (0 Bft)
08.08.2012 03:05 11,4 C 89 % 0,0 l/m 0,6 km/h (0 Bft) O-SO 112 9,7 C 10,7 C 0,0 km/h (0 Bft)
08.08.2012 03:10 11,4 C 89 % 0,0 l/m 0,0 km/h (0 Bft) S 180 9,7 C 10,7 C 0,0 km/h (0 Bft)
08.08.2012 03:15 11,5 C 89 % 0,0 l/m 0,0 km/h (0 Bft) W-SW 247 9,8 C 10,9 C 0,0 km/h (0 Bft)
08.08.2012 03:20 11,5 C 89 % 0,0 l/m 0,0 km/h (0 Bft) S-SW 202 9,8 C 11,0 C 0,0 km/h (0 Bft)
08.08.2012 03:25 11,6 C 89 % 0,0 l/m 0,0 km/h (0 Bft) W-SW 247 9,8 C 10,9 C 0,0 km/h (0 Bft)
08.08.2012 03:30 11,5 C 89 % 0,0 l/m 0,0 km/h (0 Bft) W-NW 292 9,8 C 11,0 C 0,0 km/h (0 Bft)
08.08.2012 03:35 11,7 C 89 % 0,0 l/m 0,0 km/h (0 Bft) W-NW 292 9,9 C 11,0 C 0,0 km/h (0 Bft)
08.08.2012 03:40 11,7 C 89 % 0,0 l/m 0,0 km/h (0 Bft) N-NW 337 9,9 C 11,1 C 0,0 km/h (0 Bft)
08.08.2012 03:45 12,1 C 89 % 0,0 l/m 0,0 km/h (0 Bft) NO 45 10,3 C 11,3 C 0,0 km/h (0 Bft)
08.08.2012 03:50 12,2 C 89 % 0,0 l/m 0,0 km/h (0 Bft) O-SO 112 10,4 C 11,4 C 0,0 km/h (0 Bft)
08.08.2012 03:55 12,1 C 89 % 0,0 l/m 0,0 km/h (0 Bft) O-SO 112 10,3 C 11,5 C 0,0 km/h (0 Bft)
08.08.2012 04:00 12,1 C 89 % 0,0 l/m 0,0 km/h (0 Bft) S 180 10,3 C 11,6 C 0,0 km/h (0 Bft)
08.08.2012 04:05 12,1 C 89 % 0,0 l/m 0,0 km/h (0 Bft) O 90 10,3 C 11,5 C 0,0 km/h (0 Bft)
08.08.2012 04:10 12,2 C 89 % 0,0 l/m 0,0 km/h (0 Bft) NO 45 10,4 C 11,6 C 0,0 km/h (0 Bft)
08.08.2012 04:15 12,2 C 89 % 0,0 l/m 0,0 km/h (0 Bft) N-NO 22 10,4 C 11,6 C 0,0 km/h (0 Bft)
08.08.2012 04:20 12,0 C 88 % 0,0 l/m 0,0 km/h (0 Bft) N 360 10,1 C 11,4 C 0,0 km/h (0 Bft)
08.08.2012 04:25 11,7 C 89 % 0,0 l/m 0,0 km/h (0 Bft) N-NO 22 9,9 C 11,2 C 0,0 km/h (0 Bft)
08.08.2012 04:30 11,7 C 89 % 0,0 l/m 0,2 km/h (0 Bft) N-NO 22 9,9 C 11,0 C 1,9 km/h (1 Bft)
08.08.2012 04:35 11,5 C 88 % 0,0 l/m 0,3 km/h (0 Bft) S 180 9,6 C 10,9 C 0,0 km/h (0 Bft)
08.08.2012 04:40 11,4 C 89 % 0,0 l/m 0,5 km/h (0 Bft) N 360 9,7 C 10,9 C 2,1 km/h (1 Bft)
08.08.2012 04:45 11,7 C 89 % 0,0 l/m 0,3 km/h (0 Bft) NO 45 9,9 C 11,0 C 0,0 km/h (0 Bft)
08.08.2012 04:50 11,9 C 89 % 0,0 l/m 0,3 km/h (0 Bft) NO 45 10,1 C 11,1 C 0,0 km/h (0 Bft)
08.08.2012 04:55 11,8 C 89 % 0,0 l/m 0,0 km/h (0 Bft) O-SO 112 10,0 C 11,1 C 0,0 km/h (0 Bft)
08.08.2012 05:00 11,8 C 89 % 0,0 l/m 0,0 km/h (0 Bft) N 360 10,0 C 11,1 C 0,0 km/h (0 Bft)
08.08.2012 05:05 11,9 C 89 % 0,0 l/m 0,2 km/h (0 Bft) NO 45 10,1 C 11,2 C 0,0 km/h (0 Bft)
08.08.2012 05:10 11,8 C 89 % 0,0 l/m 0,2 km/h (0 Bft) NO 45 10,0 C 11,1 C 0,0 km/h (0 Bft)
08.08.2012 05:15 11,2 C 88 % 0,0 l/m 0,3 km/h (0 Bft) O-SO 112 9,3 C 10,9 C 0,0 km/h (0 Bft)
08.08.2012 05:20 11,1 C 88 % 0,0 l/m 0,3 km/h (0 Bft) N-NO 22 9,2 C 10,7 C 0,0 km/h (0 Bft)
08.08.2012 05:25 11,1 C 88 % 0,0 l/m 0,0 km/h (0 Bft) N-NW 337 9,2 C 10,5 C 0,0 km/h (0 Bft)
08.08.2012 05:30 10,8 C 89 % 0,0 l/m 0,0 km/h (0 Bft) N 360 9,1 C 10,4 C 0,0 km/h (0 Bft)
08.08.2012 05:35 10,6 C 89 % 0,0 l/m 0,0 km/h (0 Bft) N 360 8,9 C 10,2 C 0,0 km/h (0 Bft)
08.08.2012 05:40 10,7 C 89 % 0,0 l/m 0,0 km/h (0 Bft) N-NO 22 9,0 C 10,1 C 0,0 km/h (0 Bft)
08.08.2012 05:45 10,7 C 89 % 0,0 l/m 0,0 km/h (0 Bft) N 360 9,0 C 10,1 C 0,0 km/h (0 Bft)
08.08.2012 05:50 10,6 C 89 % 0,0 l/m 0,0 km/h (0 Bft) N 360 8,9 C 10,1 C 0,0 km/h (0 Bft)
08.08.2012 05:55 10,5 C 89 % 0,0 l/m 0,0 km/h (0 Bft) NO 45 8,8 C 9,9 C 0,0 km/h (0 Bft)
08.08.2012 06:00 10,5 C 89 % 0,0 l/m 0,0 km/h (0 Bft) N-NO 22 8,8 C 9,8 C 0,0 km/h (0 Bft)
08.08.2012 06:05 10,4 C 89 % 0,0 l/m 0,0 km/h (0 Bft) O-NO 67 8,7 C 9,8 C 0,0 km/h (0 Bft)
08.08.2012 06:10 10,4 C 89 % 0,0 l/m 0,0 km/h (0 Bft) O-NO 67 8,7 C 9,6 C 0,0 km/h (0 Bft)
08.08.2012 06:15 10,1 C 89 % 0,0 l/m 0,0 km/h (0 Bft) W-SW 247 8,4 C 9,5 C 0,0 km/h (0 Bft)
08.08.2012 06:20 9,9 C 89 % 0,0 l/m 0,0 km/h (0 Bft) NW 315 8,2 C 9,4 C 0,0 km/h (0 Bft)
08.08.2012 06:25 10,0 C 89 % 0,0 l/m 0,0 km/h (0 Bft) N-NO 22 8,3 C 9,2 C 0,0 km/h (0 Bft)
08.08.2012 06:30 10,3 C 90 % 0,0 l/m 0,0 km/h (0 Bft) N 360 8,7 C 9,4 C 0,0 km/h (0 Bft)
08.08.2012 06:35 10,4 C 90 % 0,0 l/m 0,0 km/h (0 Bft) NO 45 8,8 C 10,0 C 0,0 km/h (0 Bft)
08.08.2012 06:40 10,6 C 90 % 0,0 l/m 0,0 km/h (0 Bft) S 180 9,0 C 10,7 C 0,0 km/h (0 Bft)
08.08.2012 06:45 10,8 C 90 % 0,0 l/m 0,0 km/h (0 Bft) S-SO 157 9,2 C 11,7 C 0,0 km/h (0 Bft)
08.08.2012 06:50 10,9 C 90 % 0,0 l/m 0,0 km/h (0 Bft) W 270 9,3 C 11,9 C 0,0 km/h (0 Bft)
08.08.2012 06:55 11,0 C 89 % 0,0 l/m 0,0 km/h (0 Bft) N-NO 22 9,3 C 12,0 C 0,0 km/h (0 Bft)
08.08.2012 07:00 11,1 C 89 % 0,0 l/m 0,0 km/h (0 Bft) SO 135 9,4 C 12,1 C 0,0 km/h (0 Bft)
08.08.2012 07:05 11,0 C 89 % 0,0 l/m 0,0 km/h (0 Bft) O-SO 112 9,3 C 11,7 C 0,0 km/h (0 Bft)
08.08.2012 07:10 11,1 C 89 % 0,0 l/m 0,0 km/h (0 Bft) W-NW 292 9,4 C 11,4 C 0,0 km/h (0 Bft)
08.08.2012 07:15 11,4 C 89 % 0,0 l/m 0,0 km/h (0 Bft) N-NW 337 9,7 C 11,3 C 0,0 km/h (0 Bft)
08.08.2012 07:20 11,7 C 89 % 0,0 l/m 0,0 km/h (0 Bft) NO 45 9,9 C 11,4 C 0,0 km/h (0 Bft)
08.08.2012 07:25 12,1 C 89 % 0,0 l/m 0,0 km/h (0 Bft) S-SO 157 10,3 C 11,8 C 0,0 km/h (0 Bft)
08.08.2012 07:30 12,3 C 89 % 0,0 l/m 0,0 km/h (0 Bft) SO 135 10,5 C 12,1 C 0,0 km/h (0 Bft)
08.08.2012 07:35 13,7 C 88 % 0,0 l/m 0,0 km/h (0 Bft) S-SW 202 11,7 C 13,3 C 0,0 km/h (0 Bft)
08.08.2012 07:40 14,2 C 87 % 0,0 l/m 0,0 km/h (0 Bft) S 180 12,1 C 14,5 C 0,0 km/h (0 Bft)
08.08.2012 07:45 16,4 C 84 % 0,0 l/m 0,0 km/h (0 Bft) NO 45 13,7 C 16,0 C 0,0 km/h (0 Bft)
08.08.2012 07:50 16,8 C 82 % 0,0 l/m 0,0 km/h (0 Bft) O-SO 112 14,1 C 17,7 C 0,0 km/h (0 Bft)
08.08.2012 07:55 16,2 C 79 % 0,0 l/m 0,0 km/h (0 Bft) N 360 12,6 C 17,4 C 0,0 km/h (0 Bft)
08.08.2012 08:00 18,2 C 76 % 0,0 l/m 0,0 km/h (0 Bft) W-NW 292 13,9 C 18,2 C 0,0 km/h (0 Bft)
08.08.2012 08:05 19,0 C 65 % 0,0 l/m 0,5 km/h (0 Bft) O-SO 112 12,3 C 19,4 C 4,8 km/h (1 Bft)
08.08.2012 08:10 19,7 C 64 % 0,0 l/m 1,6 km/h (1 Bft) N-NW 337 12,7 C 19,9 C 2,9 km/h (1 Bft)
08.08.2012 08:15 20,5 C 61 % 0,0 l/m 1,6 km/h (1 Bft) O-NO 67 12,7 C 20,8 C 5,0 km/h (1 Bft)
08.08.2012 08:20 19,9 C 63 % 0,0 l/m 1,3 km/h (1 Bft) O-NO 67 12,6 C 20,7 C 0,0 km/h (0 Bft)
08.08.2012 08:25 17,9 C 62 % 0,0 l/m 1,9 km/h (1 Bft) S 180 10,5 C 20,6 C 0,0 km/h (0 Bft)
08.08.2012 08:30 19,1 C 62 % 0,0 l/m 2,6 km/h (1 Bft) W 270 11,6 C 19,9 C 2,9 km/h (1 Bft)
08.08.2012 08:35 18,4 C 60 % 0,0 l/m 2,6 km/h (1 Bft) N-NW 337 10,5 C 20,3 C 6,4 km/h (2 Bft)
08.08.2012 08:40 19,1 C 59 % 0,0 l/m 2,6 km/h (1 Bft) N-NW 337 10,9 C 19,7 C 0,0 km/h (0 Bft)
08.08.2012 08:45 18,7 C 58 % 0,0 l/m 2,4 km/h (1 Bft) W-SW 247 11,9 C 20,3 C 6,6 km/h (2 Bft)
08.08.2012 08:50 18,7 C 54 % 0,0 l/m 2,6 km/h (1 Bft) W 270 11,4 C 20,7 C 3,1 km/h (1 Bft)
08.08.2012 08:55 18,6 C 53 % 0,0 l/m 3,2 km/h (1 Bft) W 270 11,3 C 21,2 C 2,9 km/h (1 Bft)
08.08.2012 09:00 18,7 C 53 % 0,0 l/m 3,2 km/h (1 Bft) W-SW 247 11,5 C 21,5 C 6,4 km/h (2 Bft)
08.08.2012 09:05 18,6 C 50 % 0,0 l/m 3,7 km/h (1 Bft) W 270 10,2 C 21,5 C 7,4 km/h (2 Bft)
08.08.2012 09:10 18,7 C 52 % 0,0 l/m 4,2 km/h (1 Bft) W-NW 292 10,9 C 21,4 C 6,9 km/h (2 Bft)
08.08.2012 09:15 18,8 C 48 % 0,0 l/m 3,7 km/h (1 Bft) NO 45 10,0 C 21,7 C 2,9 km/h (1 Bft)
08.08.2012 09:20 19,1 C 51 % 0,0 l/m 3,4 km/h (1 Bft) W-SW 247 11,2 C 22,2 C 6,9 km/h (2 Bft)
08.08.2012 09:25 19,2 C 51 % 0,0 l/m 3,5 km/h (1 Bft) S-SW 202 11,4 C 22,1 C 4,0 km/h (1 Bft)
08.08.2012 09:30 19,3 C 49 % 0,0 l/m 4,3 km/h (1 Bft) NW 315 10,7 C 22,2 C 6,4 km/h (2 Bft)
08.08.2012 09:35 19,2 C 49 % 0,0 l/m 3,9 km/h (1 Bft) W-NW 292 10,6 C 22,5 C 7,7 km/h (2 Bft)
08.08.2012 09:40 19,3 C 49 % 0,0 l/m 2,9 km/h (1 Bft) W 270 11,0 C 22,8 C 2,6 km/h (1 Bft)
08.08.2012 09:45 19,5 C 49 % 0,0 l/m 2,6 km/h (1 Bft) W-NW 292 10,7 C 23,3 C 9,8 km/h (2 Bft)
08.08.2012 09:50 19,3 C 48 % 0,0 l/m 3,2 km/h (1 Bft) W-NW 292 10,1 C 23,0 C 5,8 km/h (2 Bft)
08.08.2012 09:55 19,3 C 49 % 0,0 l/m 5,1 km/h (1 Bft) W-SW 247 10,4 C 22,1 C 10,0 km/h (2 Bft)
08.08.2012 10:00 19,6 C 48 % 0,0 l/m 4,8 km/h (1 Bft) NO 45 10,4 C 22,4 C 2,4 km/h (1 Bft)
08.08.2012 10:05 20,0 C 48 % 0,0 l/m 3,5 km/h (1 Bft) N-NO 22 10,4 C 22,9 C 3,4 km/h (1 Bft)
08.08.2012 10:10 20,1 C 48 % 0,0 l/m 3,5 km/h (1 Bft) N-NW 337 10,8 C 23,1 C 6,0 km/h (2 Bft)
08.08.2012 10:15 20,4 C 49 % 0,0 l/m 2,7 km/h (1 Bft) W 270 10,6 C 23,8 C 6,1 km/h (2 Bft)
08.08.2012 10:20 20,2 C 49 % 0,0 l/m 2,7 km/h (1 Bft) W 270 10,8 C 23,8 C 2,3 km/h (1 Bft)
08.08.2012 10:25 20,6 C 48 % 0,0 l/m 3,5 km/h (1 Bft) W 270 10,2 C 23,8 C 2,1 km/h (1 Bft)
08.08.2012 10:30 20,9 C 49 % 0,0 l/m 2,7 km/h (1 Bft) S-SW 202 11,3 C 24,2 C 3,1 km/h (1 Bft)
08.08.2012 10:35 20,7 C 48 % 0,0 l/m 3,4 km/h (1 Bft) W 270 10,1 C 23,9 C 6,6 km/h (2 Bft)
08.08.2012 10:40 21,0 C 49 % 0,0 l/m 3,5 km/h (1 Bft) S 180 11,0 C 24,0 C 2,7 km/h (1 Bft)
08.08.2012 10:45 21,5 C 48 % 0,0 l/m 2,1 km/h (1 Bft) W 270 10,8 C 24,6 C 1,8 km/h (1 Bft)
08.08.2012 10:50 21,7 C 47 % 0,0 l/m 2,1 km/h (1 Bft) S-SW 202 10,6 C 25,1 C 3,5 km/h (1 Bft)
08.08.2012 10:55 21,2 C 48 % 0,0 l/m 2,9 km/h (1 Bft) S-SW 202 9,7 C 25,0 C 2,9 km/h (1 Bft)
08.08.2012 11:00 21,6 C 48 % 0,0 l/m 2,7 km/h (1 Bft) NO 45 10,1 C 24,7 C 0,0 km/h (0 Bft)
08.08.2012 11:05 22,5 C 49 % 0,0 l/m 1,8 km/h (1 Bft) W-SW 247 11,5 C 25,5 C 1,6 km/h (1 Bft)
08.08.2012 11:10 22,6 C 48 % 0,0 l/m 1,6 km/h (1 Bft) O-SO 112 11,0 C 25,7 C 0,0 km/h (0 Bft)
08.08.2012 11:15 23,1 C 46 % 0,0 l/m 2,1 km/h (1 Bft) SO 135 10,8 C 25,9 C 4,8 km/h (1 Bft)
08.08.2012 11:20 22,5 C 48 % 0,0 l/m 2,6 km/h (1 Bft) NW 315 10,9 C 25,8 C 4,0 km/h (1 Bft)
08.08.2012 11:25 22,1 C 46 % 0,0 l/m 3,9 km/h (1 Bft) N 360 9,9 C 25,4 C 4,3 km/h (1 Bft)
08.08.2012 11:30 23,6 C 43 % 0,0 l/m 2,7 km/h (1 Bft) SO 135 10,3 C 25,9 C 0,0 km/h (0 Bft)
08.08.2012 11:35 24,3 C 45 % 0,0 l/m 2,1 km/h (1 Bft) S 180 11,6 C 27,5 C 2,9 km/h (1 Bft)
08.08.2012 11:40 23,9 C 43 % 0,0 l/m 2,4 km/h (1 Bft) W-NW 292 10,5 C 27,4 C 1,9 km/h (1 Bft)
08.08.2012 11:45 23,3 C 45 % 0,0 l/m 3,5 km/h (1 Bft) W-NW 292 10,7 C 27,1 C 6,4 km/h (2 Bft)
08.08.2012 11:50 24,0 C 44 % 0,0 l/m 3,7 km/h (1 Bft) S-SW 202 11,0 C 26,9 C 4,0 km/h (1 Bft)
08.08.2012 11:55 21,6 C 49 % 0,0 l/m 3,1 km/h (1 Bft) W-NW 292 10,4 C 25,7 C 4,8 km/h (1 Bft)
08.08.2012 12:00 21,8 C 51 % 0,0 l/m 3,5 km/h (1 Bft) SO 135 11,2 C 24,4 C 0,0 km/h (0 Bft)
08.08.2012 12:05 22,7 C 48 % 0,0 l/m 4,2 km/h (1 Bft) SW 225 11,1 C 24,6 C 10,3 km/h (2 Bft)
08.08.2012 12:10 22,7 C 49 % 0,0 l/m 3,4 km/h (1 Bft) S 180 11,4 C 24,9 C 0,0 km/h (0 Bft)
08.08.2012 12:15 22,3 C 51 % 0,0 l/m 3,1 km/h (1 Bft) O-SO 112 11,7 C 24,5 C 3,4 km/h (1 Bft)
08.08.2012 12:20 23,3 C 49 % 0,0 l/m 2,9 km/h (1 Bft) S 180 12,0 C 24,4 C 2,3 km/h (1 Bft)
08.08.2012 12:25 23,8 C 46 % 0,0 l/m 3,5 km/h (1 Bft) W-NW 292 11,5 C 25,7 C 9,0 km/h (2 Bft)
08.08.2012 12:30 23,8 C 47 % 0,0 l/m 4,3 km/h (1 Bft) W 270 11,8 C 25,7 C 3,7 km/h (1 Bft)
08.08.2012 12:35 23,0 C 48 % 0,0 l/m 4,0 km/h (1 Bft) W-SW 247 11,4 C 26,3 C 2,1 km/h (1 Bft)
08.08.2012 12:40 21,1 C 52 % 0,0 l/m 3,4 km/h (1 Bft) N-NO 22 10,9 C 25,1 C 3,7 km/h (1 Bft)
08.08.2012 12:45 22,1 C 51 % 0,0 l/m 3,1 km/h (1 Bft) O-SO 112 11,5 C 23,9 C 0,0 km/h (0 Bft)
08.08.2012 12:50 22,8 C 49 % 0,0 l/m 3,1 km/h (1 Bft) NO 45 11,5 C 25,1 C 2,9 km/h (1 Bft)
08.08.2012 12:55 22,6 C 52 % 0,0 l/m 2,7 km/h (1 Bft) W-SW 247 12,2 C 25,5 C 6,0 km/h (2 Bft)
08.08.2012 13:00 21,6 C 52 % 0,0 l/m 2,7 km/h (1 Bft) SW 225 11,3 C 24,9 C 5,3 km/h (1 Bft)
08.08.2012 13:05 20,9 C 53 % 0,0 l/m 2,6 km/h (1 Bft) W-SW 247 11,0 C 23,6 C 0,0 km/h (0 Bft)
08.08.2012 13:10 21,1 C 53 % 0,0 l/m 2,4 km/h (1 Bft) S-SO 157 11,1 C 23,5 C 3,4 km/h (1 Bft)
08.08.2012 13:15 22,9 C 53 % 0,0 l/m 2,9 km/h (1 Bft) S-SO 157 12,8 C 23,7 C 4,8 km/h (1 Bft)
08.08.2012 13:20 23,2 C 50 % 0,0 l/m 4,3 km/h (1 Bft) W 270 12,2 C 24,4 C 3,4 km/h (1 Bft)
08.08.2012 13:25 23,1 C 48 % 0,0 l/m 4,7 km/h (1 Bft) S 180 11,5 C 25,5 C 15,6 km/h (3 Bft)
08.08.2012 13:30 22,9 C 48 % 0,0 l/m 4,3 km/h (1 Bft) S 180 11,3 C 25,7 C 5,6 km/h (1 Bft)
08.08.2012 13:35 22,5 C 49 % 0,0 l/m 4,0 km/h (1 Bft) SW 225 11,2 C 25,0 C 4,3 km/h (1 Bft)
08.08.2012 13:40 22,7 C 49 % 0,0 l/m 3,2 km/h (1 Bft) S 180 11,4 C 24,8 C 2,4 km/h (1 Bft)
08.08.2012 13:45 22,4 C 52 % 0,0 l/m 3,1 km/h (1 Bft) N-NW 337 12,1 C 24,9 C 6,1 km/h (2 Bft)
08.08.2012 13:50 23,5 C 49 % 0,0 l/m 2,3 km/h (1 Bft) W-NW 292 12,2 C 25,3 C 2,1 km/h (1 Bft)
08.08.2012 13:55 21,6 C 52 % 0,0 l/m 4,7 km/h (1 Bft) W-SW 247 11,3 C 24,7 C 6,8 km/h (2 Bft)
08.08.2012 14:00 20,9 C 54 % 0,0 l/m 5,1 km/h (1 Bft) W-SW 247 11,2 C 23,4 C 5,1 km/h (1 Bft)
08.08.2012 14:05 21,1 C 54 % 0,0 l/m 4,0 km/h (1 Bft) W 270 11,4 C 22,8 C 2,9 km/h (1 Bft)
08.08.2012 14:10 20,7 C 56 % 0,0 l/m 3,1 km/h (1 Bft) W-NW 292 11,6 C 22,6 C 2,7 km/h (1 Bft)
08.08.2012 14:15 21,8 C 55 % 0,0 l/m 3,2 km/h (1 Bft) W-NW 292 12,4 C 23,1 C 6,3 km/h (2 Bft)
08.08.2012 14:20 22,5 C 52 % 0,0 l/m 3,9 km/h (1 Bft) N-NO 22 12,1 C 23,7 C 3,7 km/h (1 Bft)
08.08.2012 14:25 23,2 C 47 % 0,0 l/m 3,4 km/h (1 Bft) W-SW 247 11,3 C 25,0 C 9,8 km/h (2 Bft)
08.08.2012 14:30 22,0 C 52 % 0,0 l/m 3,4 km/h (1 Bft) S 180 11,7 C 24,7 C 3,9 km/h (1 Bft)
08.08.2012 14:35 22,1 C 54 % 0,0 l/m 3,9 km/h (1 Bft) W 270 12,3 C 23,6 C 4,5 km/h (1 Bft)
08.08.2012 14:40 21,7 C 54 % 0,0 l/m 3,4 km/h (1 Bft) W-NW 292 12,0 C 23,4 C 4,2 km/h (1 Bft)
08.08.2012 14:45 21,7 C 52 % 0,0 l/m 3,1 km/h (1 Bft) S 180 11,4 C 24,1 C 4,8 km/h (1 Bft)
08.08.2012 14:50 22,6 C 53 % 0,0 l/m 3,4 km/h (1 Bft) W-NW 292 12,5 C 24,0 C 6,8 km/h (2 Bft)
08.08.2012 14:55 22,3 C 52 % 0,0 l/m 4,8 km/h (1 Bft) N-NW 337 12,0 C 24,2 C 4,0 km/h (1 Bft)
08.08.2012 15:00 22,6 C 51 % 0,0 l/m 5,3 km/h (1 Bft) W-NW 292 11,9 C 24,3 C 5,5 km/h (1 Bft)
08.08.2012 15:05 22,5 C 52 % 0,0 l/m 3,9 km/h (1 Bft) S 180 12,1 C 24,5 C 2,1 km/h (1 Bft)
08.08.2012 15:10 22,6 C 52 % 0,0 l/m 2,9 km/h (1 Bft) S 180 12,2 C 24,6 C 3,5 km/h (1 Bft)
08.08.2012 15:15 22,0 C 51 % 0,0 l/m 2,6 km/h (1 Bft) W-NW 292 11,4 C 24,0 C 1,9 km/h (1 Bft)
08.08.2012 15:20 22,7 C 51 % 0,0 l/m 2,6 km/h (1 Bft) W-SW 247 12,0 C 24,5 C 4,5 km/h (1 Bft)
08.08.2012 15:25 21,4 C 54 % 0,0 l/m 3,7 km/h (1 Bft) W 270 11,7 C 24,2 C 4,3 km/h (1 Bft)
08.08.2012 15:30 21,1 C 54 % 0,0 l/m 3,9 km/h (1 Bft) W-SW 247 11,4 C 23,6 C 0,0 km/h (0 Bft)
08.08.2012 15:35 20,7 C 55 % 0,0 l/m 2,4 km/h (1 Bft) W 270 11,3 C 23,2 C 4,8 km/h (1 Bft)
08.08.2012 15:40 20,7 C 57 % 0,0 l/m 2,1 km/h (1 Bft) S-SO 157 11,9 C 22,7 C 3,4 km/h (1 Bft)
08.08.2012 15:45 20,6 C 57 % 0,0 l/m 3,2 km/h (1 Bft) S-SW 202 11,8 C 22,1 C 2,7 km/h (1 Bft)
08.08.2012 15:50 20,6 C 58 % 0,0 l/m 3,1 km/h (1 Bft) SW 225 12,0 C 21,9 C 2,1 km/h (1 Bft)
08.08.2012 15:55 21,1 C 53 % 0,0 l/m 2,9 km/h (1 Bft) W 270 11,1 C 22,4 C 0,0 km/h (0 Bft)
08.08.2012 16:00 21,6 C 55 % 0,0 l/m 1,8 km/h (1 Bft) S 180 12,2 C 22,9 C 0,0 km/h (0 Bft)
08.08.2012 16:05 22,2 C 52 % 0,0 l/m 2,3 km/h (1 Bft) SO 135 11,9 C 24,2 C 3,7 km/h (1 Bft)
08.08.2012 16:10 22,2 C 53 % 0,0 l/m 4,0 km/h (1 Bft) S 180 12,2 C 24,4 C 7,6 km/h (2 Bft)
08.08.2012 16:15 21,4 C 54 % 0,0 l/m 5,6 km/h (1 Bft) W-NW 292 11,7 C 24,1 C 7,2 km/h (2 Bft)
08.08.2012 16:20 20,9 C 57 % 0,0 l/m 5,3 km/h (1 Bft) SO 135 12,1 C 23,2 C 5,8 km/h (2 Bft)
08.08.2012 16:25 21,0 C 56 % 0,0 l/m 3,7 km/h (1 Bft) W 270 11,9 C 22,9 C 2,7 km/h (1 Bft)
08.08.2012 16:30 20,8 C 57 % 0,0 l/m 2,9 km/h (1 Bft) W 270 12,0 C 22,6 C 4,3 km/h (1 Bft)
08.08.2012 16:35 20,2 C 58 % 0,0 l/m 2,7 km/h (1 Bft) W 270 11,7 C 22,0 C 0,0 km/h (0 Bft)
08.08.2012 16:40 20,2 C 58 % 0,0 l/m 1,8 km/h (1 Bft) S 180 11,7 C 21,9 C 0,0 km/h (0 Bft)
08.08.2012 16:45 20,5 C 58 % 0,0 l/m 1,1 km/h (1 Bft) S 180 11,9 C 21,9 C 2,3 km/h (1 Bft)
08.08.2012 16:50 20,4 C 59 % 0,0 l/m 2,6 km/h (1 Bft) S 180 12,1 C 21,8 C 3,2 km/h (1 Bft)
08.08.2012 16:55 20,5 C 59 % 0,0 l/m 3,7 km/h (1 Bft) W-NW 292 12,2 C 21,6 C 4,8 km/h (1 Bft)
08.08.2012 17:00 20,7 C 58 % 0,0 l/m 3,4 km/h (1 Bft) S-SW 202 12,1 C 21,6 C 4,5 km/h (1 Bft)
08.08.2012 17:05 20,7 C 59 % 0,0 l/m 2,6 km/h (1 Bft) SO 135 12,4 C 22,0 C 0,0 km/h (0 Bft)
08.08.2012 17:10 20,9 C 58 % 0,0 l/m 2,4 km/h (1 Bft) S-SW 202 12,3 C 22,1 C 5,5 km/h (1 Bft)
08.08.2012 17:15 20,6 C 58 % 0,0 l/m 3,2 km/h (1 Bft) S 180 12,0 C 21,9 C 5,5 km/h (1 Bft)
08.08.2012 17:20 20,6 C 58 % 0,0 l/m 3,1 km/h (1 Bft) SW 225 12,0 C 21,8 C 2,3 km/h (1 Bft)
08.08.2012 17:25 20,3 C 59 % 0,0 l/m 2,3 km/h (1 Bft) N-NO 22 12,0 C 21,6 C 0,0 km/h (0 Bft)
08.08.2012 17:30 20,2 C 59 % 0,0 l/m 2,6 km/h (1 Bft) SW 225 11,9 C 21,5 C 0,0 km/h (0 Bft)
08.08.2012 17:35 20,3 C 59 % 0,0 l/m 2,4 km/h (1 Bft) NW 315 12,0 C 21,4 C 3,2 km/h (1 Bft)
08.08.2012 17:40 20,4 C 59 % 0,0 l/m 2,3 km/h (1 Bft) S-SW 202 12,1 C 21,6 C 6,0 km/h (2 Bft)
08.08.2012 17:45 20,3 C 58 % 0,0 l/m 3,7 km/h (1 Bft) S 180 11,8 C 21,9 C 3,9 km/h (1 Bft)
08.08.2012 17:50 20,1 C 59 % 0,0 l/m 3,9 km/h (1 Bft) W-NW 292 11,8 C 21,7 C 2,4 km/h (1 Bft)
08.08.2012 17:55 20,1 C 60 % 0,0 l/m 2,4 km/h (1 Bft) W-SW 247 12,1 C 21,5 C 4,7 km/h (1 Bft)
08.08.2012 18:00 20,1 C 60 % 0,0 l/m 2,3 km/h (1 Bft) W 270 12,1 C 21,4 C 3,7 km/h (1 Bft)
08.08.2012 18:05 20,3 C 60 % 0,0 l/m 1,6 km/h (1 Bft) N 360 12,3 C 21,7 C 1,8 km/h (1 Bft)
08.08.2012 18:10 20,1 C 61 % 0,0 l/m 1,1 km/h (1 Bft) NO 45 12,3 C 21,7 C 0,0 km/h (0 Bft)
08.08.2012 18:15 20,0 C 62 % 0,0 l/m 0,6 km/h (0 Bft) NO 45 12,5 C 21,6 C 1,6 km/h (1 Bft)
08.08.2012 18:20 20,0 C 63 % 0,0 l/m 0,2 km/h (0 Bft) O-NO 67 12,7 C 21,6 C 0,0 km/h (0 Bft)
08.08.2012 18:25 20,0 C 65 % 0,0 l/m 0,6 km/h (0 Bft) O-NO 67 13,2 C 21,9 C 0,0 km/h (0 Bft)
08.08.2012 18:30 20,0 C 61 % 0,0 l/m 1,6 km/h (1 Bft) W 270 12,2 C 21,6 C 3,2 km/h (1 Bft)
08.08.2012 18:35 19,7 C 59 % 0,0 l/m 3,1 km/h (1 Bft) W 270 11,5 C 21,5 C 8,2 km/h (2 Bft)
08.08.2012 18:40 19,3 C 60 % 0,0 l/m 3,5 km/h (1 Bft) W 270 11,3 C 21,2 C 3,5 km/h (1 Bft)
08.08.2012 18:45 19,1 C 62 % 0,0 l/m 3,2 km/h (1 Bft) W-NW 292 11,6 C 21,0 C 0,0 km/h (0 Bft)
08.08.2012 18:50 18,8 C 65 % 0,0 l/m 1,9 km/h (1 Bft) W-NW 292 12,1 C 20,6 C 2,3 km/h (1 Bft)
08.08.2012 18:55 18,3 C 65 % 0,0 l/m 0,8 km/h (0 Bft) N 360 11,6 C 19,8 C 2,6 km/h (1 Bft)
08.08.2012 19:00 18,1 C 65 % 0,0 l/m 0,6 km/h (0 Bft) NO 45 11,4 C 19,3 C 0,0 km/h (0 Bft)
08.08.2012 19:05 18,0 C 65 % 0,0 l/m 0,3 km/h (0 Bft) NO 45 11,3 C 18,8 C 0,0 km/h (0 Bft)
08.08.2012 19:10 17,9 C 66 % 0,0 l/m 0,2 km/h (0 Bft) N-NW 337 11,5 C 18,7 C 0,0 km/h (0 Bft)
08.08.2012 19:15 17,9 C 66 % 0,0 l/m 0,0 km/h (0 Bft) N-NO 22 11,5 C 18,6 C 0,0 km/h (0 Bft)
08.08.2012 19:20 17,8 C 66 % 0,0 l/m 0,0 km/h (0 Bft) O-NO 67 11,4 C 18,5 C 0,0 km/h (0 Bft)
08.08.2012 19:25 17,8 C 66 % 0,0 l/m 0,0 km/h (0 Bft) NO 45 11,4 C 18,4 C 0,0 km/h (0 Bft)
08.08.2012 19:30 17,7 C 66 % 0,0 l/m 0,0 km/h (0 Bft) NO 45 11,3 C 18,4 C 0,0 km/h (0 Bft)
08.08.2012 19:35 17,5 C 68 % 0,0 l/m 0,0 km/h (0 Bft) N 360 11,5 C 18,2 C 0,0 km/h (0 Bft)
08.08.2012 19:40 17,3 C 68 % 0,0 l/m 0,0 km/h (0 Bft) NO 45 11,3 C 18,2 C 0,0 km/h (0 Bft)
08.08.2012 19:45 17,0 C 69 % 0,0 l/m 0,0 km/h (0 Bft) N-NO 22 11,3 C 17,9 C 0,0 km/h (0 Bft)
08.08.2012 19:50 16,7 C 70 % 0,0 l/m 0,0 km/h (0 Bft) N-NO 22 11,2 C 17,5 C 0,0 km/h (0 Bft)
08.08.2012 19:55 16,4 C 72 % 0,0 l/m 0,0 km/h (0 Bft) N-NW 337 11,3 C 17,0 C 0,0 km/h (0 Bft)
08.08.2012 20:00 16,3 C 74 % 0,0 l/m 0,0 km/h (0 Bft) N-NO 22 11,7 C 16,7 C 0,0 km/h (0 Bft)
08.08.2012 20:05 16,3 C 74 % 0,0 l/m 0,0 km/h (0 Bft) N-NO 22 11,7 C 16,5 C 0,0 km/h (0 Bft)
08.08.2012 20:10 16,4 C 75 % 0,0 l/m 0,0 km/h (0 Bft) N-NO 22 12,0 C 16,5 C 0,0 km/h (0 Bft)
08.08.2012 20:15 16,2 C 75 % 0,0 l/m 0,0 km/h (0 Bft) NO 45 11,8 C 16,3 C 0,0 km/h (0 Bft)
08.08.2012 20:20 16,1 C 75 % 0,0 l/m 0,0 km/h (0 Bft) N-NO 22 11,7 C 16,1 C 0,0 km/h (0 Bft)
08.08.2012 20:25 16,0 C 76 % 0,0 l/m 0,0 km/h (0 Bft) N 360 11,8 C 15,9 C 0,0 km/h (0 Bft)
08.08.2012 20:30 16,0 C 76 % 0,0 l/m 0,0 km/h (0 Bft) N-NO 22 11,8 C 15,9 C 0,0 km/h (0 Bft)
08.08.2012 20:35 16,1 C 77 % 0,0 l/m 0,0 km/h (0 Bft) N-NO 22 12,1 C 15,9 C 0,0 km/h (0 Bft)
08.08.2012 20:40 16,1 C 77 % 0,0 l/m 0,2 km/h (0 Bft) N-NW 337 12,1 C 15,9 C 0,0 km/h (0 Bft)
08.08.2012 20:45 16,2 C 77 % 0,0 l/m 0,3 km/h (0 Bft) NO 45 12,2 C 15,9 C 0,0 km/h (0 Bft)
08.08.2012 20:50 16,3 C 76 % 0,0 l/m 0,2 km/h (0 Bft) NO 45 12,1 C 15,9 C 0,0 km/h (0 Bft)
08.08.2012 20:55 16,1 C 76 % 0,0 l/m 0,0 km/h (0 Bft) NO 45 11,9 C 15,9 C 0,0 km/h (0 Bft)
08.08.2012 21:00 16,0 C 77 % 0,0 l/m 0,0 km/h (0 Bft) NO 45 12,0 C 15,9 C 0,0 km/h (0 Bft)
08.08.2012 21:05 16,1 C 77 % 0,0 l/m 0,0 km/h (0 Bft) W-SW 247 12,1 C 15,9 C 0,0 km/h (0 Bft)
08.08.2012 21:10 16,0 C 77 % 0,0 l/m 0,2 km/h (0 Bft) NO 45 12,0 C 15,8 C 0,0 km/h (0 Bft)
08.08.2012 21:15 15,9 C 78 % 0,0 l/m 0,2 km/h (0 Bft) N-NW 337 12,1 C 15,8 C 0,0 km/h (0 Bft)
08.08.2012 21:20 15,9 C 78 % 0,0 l/m 0,0 km/h (0 Bft) NO 45 12,1 C 15,7 C 0,0 km/h (0 Bft)
08.08.2012 21:25 15,8 C 77 % 0,0 l/m 0,2 km/h (0 Bft) N-NO 22 11,8 C 15,6 C 0,0 km/h (0 Bft)
08.08.2012 21:30 15,7 C 78 % 0,0 l/m 0,3 km/h (0 Bft) N-NO 22 11,9 C 15,5 C 0,0 km/h (0 Bft)
08.08.2012 21:35 15,7 C 76 % 0,0 l/m 0,2 km/h (0 Bft) N 360 11,5 C 15,3 C 0,0 km/h (0 Bft)
08.08.2012 21:40 15,5 C 76 % 0,0 l/m 0,0 km/h (0 Bft) O-SO 112 11,3 C 15,1 C 0,0 km/h (0 Bft)
08.08.2012 21:45 15,2 C 76 % 0,0 l/m 0,0 km/h (0 Bft) NO 45 11,0 C 14,8 C 0,0 km/h (0 Bft)
08.08.2012 21:50 15,0 C 77 % 0,0 l/m 0,0 km/h (0 Bft) W-SW 247 11,0 C 14,5 C 0,0 km/h (0 Bft)
08.08.2012 21:55 14,7 C 78 % 0,0 l/m 0,0 km/h (0 Bft) N-NW 337 10,9 C 14,1 C 0,0 km/h (0 Bft)
08.08.2012 22:00 14,4 C 79 % 0,0 l/m 0,0 km/h (0 Bft) NO 45 10,8 C 13,8 C 1,6 km/h (1 Bft)
08.08.2012 22:05 14,1 C 79 % 0,0 l/m 0,0 km/h (0 Bft) O-SO 112 10,5 C 13,4 C 0,0 km/h (0 Bft)
08.08.2012 22:10 14,1 C 79 % 0,0 l/m 0,0 km/h (0 Bft) NO 45 10,5 C 13,1 C 0,0 km/h (0 Bft)
08.08.2012 22:15 13,5 C 80 % 0,0 l/m 0,0 km/h (0 Bft) N-NO 22 10,1 C 12,7 C 0,0 km/h (0 Bft)
08.08.2012 22:20 13,5 C 80 % 0,0 l/m 0,0 km/h (0 Bft) N 360 10,1 C 12,5 C 0,0 km/h (0 Bft)
08.08.2012 22:25 13,5 C 81 % 0,0 l/m 0,0 km/h (0 Bft) N 360 10,3 C 12,4 C 0,0 km/h (0 Bft)
08.08.2012 22:30 13,5 C 81 % 0,0 l/m 0,0 km/h (0 Bft) N-NO 22 10,3 C 12,3 C 0,0 km/h (0 Bft)
08.08.2012 22:35 13,5 C 81 % 0,0 l/m 0,0 km/h (0 Bft) N 360 10,3 C 12,3 C 0,0 km/h (0 Bft)
08.08.2012 22:40 13,2 C 81 % 0,0 l/m 0,0 km/h (0 Bft) N-NO 22 10,0 C 12,2 C 0,0 km/h (0 Bft)
08.08.2012 22:45 13,0 C 82 % 0,0 l/m 0,0 km/h (0 Bft) N-NO 22 10,0 C 12,1 C 0,0 km/h (0 Bft)
08.08.2012 22:50 13,0 C 82 % 0,0 l/m 0,0 km/h (0 Bft) S-SO 157 10,0 C 12,1 C 0,0 km/h (0 Bft)
08.08.2012 22:55 12,9 C 83 % 0,0 l/m 0,0 km/h (0 Bft) S-SW 202 10,1 C 12,0 C 0,0 km/h (0 Bft)
08.08.2012 23:00 12,7 C 84 % 0,0 l/m 0,0 km/h (0 Bft) W-SW 247 10,1 C 11,9 C 0,0 km/h (0 Bft)
08.08.2012 23:05 12,5 C 84 % 0,0 l/m 0,0 km/h (0 Bft) N 360 9,9 C 11,7 C 0,0 km/h (0 Bft)
08.08.2012 23:10 12,6 C 84 % 0,0 l/m 0,0 km/h (0 Bft) N 360 10,0 C 11,7 C 0,0 km/h (0 Bft)
08.08.2012 23:15 12,5 C 84 % 0,0 l/m 0,0 km/h (0 Bft) N-NO 22 9,9 C 11,6 C 0,0 km/h (0 Bft)
08.08.2012 23:20 12,7 C 84 % 0,0 l/m 0,0 km/h (0 Bft) N-NO 22 10,1 C 11,5 C 0,0 km/h (0 Bft)
08.08.2012 23:25 12,2 C 84 % 0,0 l/m 0,0 km/h (0 Bft) NO 45 9,6 C 11,4 C 0,0 km/h (0 Bft)
08.08.2012 23:30 12,0 C 84 % 0,0 l/m 0,0 km/h (0 Bft) NO 45 9,4 C 11,2 C 0,0 km/h (0 Bft)
08.08.2012 23:35 11,8 C 85 % 0,0 l/m 0,0 km/h (0 Bft) NO 45 9,4 C 11,0 C 0,0 km/h (0 Bft)
08.08.2012 23:40 11,7 C 85 % 0,0 l/m 0,0 km/h (0 Bft) N 360 9,3 C 10,7 C 0,0 km/h (0 Bft)
08.08.2012 23:45 11,9 C 86 % 0,0 l/m 0,0 km/h (0 Bft) N-NO 22 9,6 C 10,7 C 0,0 km/h (0 Bft)
08.08.2012 23:50 11,9 C 86 % 0,0 l/m 0,0 km/h (0 Bft) N-NO 22 9,6 C 10,7 C 0,0 km/h (0 Bft)
08.08.2012 23:55 11,6 C 86 % 0,0 l/m 0,0 km/h (0 Bft) NO 45 9,3 C 10,6 C 0,0 km/h (0 Bft)
_ Min-Zeit 06:20 11:40 - 23:55 - - 06:20 06:25 23:55
Minimum _ 9,9 C 43 % - 0,0 km/h (0 Bft) - - 8,2 C 9,2 C 0,0 km/h (0 Bft)
_ Max-Zeit 11:35 06:50 23:55 16:15 - - 07:50 11:35 13:25
Maximum _ 24,3 C 90 % 0,0 l/m 5,6 km/h
W-NW (1 Bft)
- - 14,1 C 27,5 C 15,6 km/h
S (3 Bft)
Durchschnitt _ 16,7 C 70 % #0,0 l/m 1,4 km/h (1 Bft) W - 10,8 C 17,5 C 1,8 km/h (1 Bft)